Lapse_Rate
8.3 8.1 8.5 8.5 8.2 7.5 7.1 7.6 7.5 7.0 6.8 7.0 7.0 6.7 6.8 6.7 6.4 6.2 6.2 6.2 6.1 5.9 5.4 5.3 5.3 5.4 5.4 5.7 5.8 5.8 5.9 5.9 5.9
8.4 8.6 8.6 8.5 8.3 7.7 7.2 7.6 7.5 7.2 7.1 7.2 7.3 7.2 7.1 6.7 6.4 6.3 6.2 6.3 5.9 5.7 5.8 5.6 5.4 5.5 5.6 5.5 5.5 5.8 5.8 5.7 5.7
8.5 8.1 8.1 8.4 8.1 7.8 7.7 7.9 7.6 7.4 7.5 7.5 7.4 7.1 6.9 6.7 6.4 6.2 6.2 6.2 5.8 6.0 6.1 5.8 5.7 5.7 5.7 5.6 5.6 5.5 5.5 5.5 5.6
8.7 8.8 8.9 7.9 8.1 7.9 8.4 8.1 7.8 7.9 7.8 7.6 7.4 7.2 7.0 6.8 6.6 6.3 6.2 6.1 6.0 6.1 6.2 6.0 5.9 5.7 5.6 5.5 5.5 5.5 5.5 5.4 5.5
8.9 8.2 8.3 8.2 7.4 8.0 8.4 8.1 8.1 8.1 7.8 7.6 7.4 7.3 7.0 6.9 6.6 6.4 6.2 5.9 6.0 5.9 6.0 5.8 5.6 5.5 5.4 5.5 5.6 5.7 5.6 5.5 5.6
8.2 7.9 8.4 8.3 7.4 7.9 8.3 8.2 8.0 8.0 7.8 7.7 7.9 7.7 7.2 6.9 6.6 6.3 6.0 5.7 5.8 5.9 6.0 5.7 5.6 5.6 5.8 5.9 5.9 6.0 5.9 5.8 5.6
7.9 8.2 8.5 8.3 7.9 7.4 7.9 8.0 7.7 7.7 7.5 7.4 7.6 7.5 7.3 6.9 6.6 6.2 6.2 6.1 6.0 5.7 5.8 5.8 6.1 6.1 5.9 6.0 6.1 6.2 6.1 6.0 5.9
7.8 8.2 8.3 8.0 7.8 7.4 7.8 8.2 8.1 8.0 7.7 7.3 7.3 7.1 7.3 7.1 6.6 6.5 6.4 6.1 5.6 5.3 5.3 5.5 5.8 6.1 6.4 6.2 6.0 6.0 6.1 6.1 6.0
8.1 8.0 7.9 8.1 8.0 8.0 7.9 8.0 7.6 7.1 6.7 5.9 5.3 5.6 6.8 6.7 6.3 6.3 6.3 6.0 5.7 5.8 5.7 5.5 5.7 6.2 6.1 6.1 6.1 6.0 5.9 5.9 5.9
8.0 8.1 7.9 8.0 7.7 7.8 7.7 7.1 6.8 6.3 4.6 6.3 6.3 5.6 5.9 6.1 5.9 5.9 6.0 5.8 5.6 5.2 5.3 5.4 5.5 6.1 6.3 6.3 6.3 6.1 5.9 5.8 5.8
8.1 8.0 8.2 8.1 8.2 8.0 7.5 6.8 7.2 6.7 6.8 6.8 6.5 6.1 6.4 6.1 6.1 6.1 5.9 5.5 5.5 5.6 5.4 5.3 5.6 5.7 6.0 6.3 6.3 6.1 6.0 5.9 5.8
8.4 8.7 8.5 8.1 7.9 8.0 7.3 7.0 6.7 6.5 6.6 6.5 6.6 6.3 6.2 6.2 6.5 6.0 5.8 5.8 5.7 5.6 5.7 5.8 5.6 5.5 6.0 6.0 6.0 6.0 5.9 5.9 5.9
8.7 8.8 8.4 7.9 7.7 7.5 7.2 7.0 6.7 6.4 6.5 6.5 6.4 6.1 6.4 6.4 6.0 5.8 5.7 5.7 5.6 5.7 5.8 5.8 5.6 5.9 6.0 6.0 5.9 5.9 6.0 6.0 5.9
8.5 8.6 8.2 7.7 7.4 6.8 7.0 7.0 6.6 6.3 6.2 6.1 6.0 6.1 6.4 6.4 5.8 5.8 5.7 5.8 6.1 6.0 5.7 5.7 5.9 5.9 5.9 5.7 5.8 6.0 6.0 6.0 6.0
8.3 8.1 7.8 7.3 7.1 6.9 6.6 6.6 6.4 6.3 6.2 6.1 6.0 6.1 6.3 6.0 5.8 5.9 5.9 6.2 6.2 6.0 6.0 5.9 5.8 5.8 5.8 5.8 5.9 5.9 5.8 5.8 5.5
7.5 8.1 7.4 7.2 7.0 6.9 6.7 6.6 6.7 6.8 6.6 6.4 6.3 6.2 6.0 5.8 5.6 5.6 5.8 6.0 6.1 6.1 5.9 5.8 5.9 5.9 5.8 5.7 5.7 5.5 5.4 5.0 4.8
6.8 7.6 7.2 7.0 7.1 7.0 6.9 6.8 6.7 6.5 6.2 5.9 5.9 5.8 5.7 5.8 5.9 6.0 6.1 6.3 6.2 6.1 5.9 5.8 5.8 5.7 5.6 5.5 5.4 5.3 5.0 4.9 5.0
7.0 7.2 7.4 7.4 7.0 7.0 7.0 6.8 6.5 6.3 6.1 6.1 6.1 6.0 6.0 6.0 6.0 6.0 6.2 6.2 6.1 6.0 5.9 5.8 5.6 5.5 5.4 5.3 5.1 5.0 4.9 4.7 4.6
7.2 7.3 7.2 7.1 7.0 7.0 6.8 6.8 6.6 6.5 6.5 6.3 6.1 6.1 6.3 6.2 6.0 6.0 6.1 6.1 6.2 6.1 6.0 5.8 5.6 5.6 5.3 5.2 5.1 5.1 5.2 5.4 5.5
7.4 7.2 7.3 7.0 7.0 6.7 6.7 6.5 6.6 6.4 6.1 6.0 6.1 6.1 6.1 6.1 6.1 6.0 6.1 6.2 6.2 6.1 5.9 5.9 5.7 5.4 5.3 5.2 5.3 5.3 5.5 5.7 5.6
Wind_Speed
16 11 7 7 7 9 12 13 12 10 8 7 8 8 7 6 6 4 4 5 4 4 3 3 2 3 3 4 4 4 4 3 3
15 15 12 10 7 8 10 11 12 12 11 8 8 8 6 6 6 7 6 7 5 4 3 3 3 3 3 3 4 3 4 3 5
10 3 5 2 7 10 8 10 9 10 12 12 9 8 6 6 6 6 6 6 6 4 2 2 3 2 3 4 4 3 5 4 4
14 16 12 13 10 7 10 10 11 10 10 10 9 8 7 7 6 7 6 4 4 3 3 2 1 0 2 3 4 2 3 4 5
10 11 8 7 7 7 10 12 11 11 10 11 10 9 8 8 7 5 6 5 4 4 3 1 1 2 3 4 4 2 4 5 6
10 10 10 13 5 9 12 13 12 12 12 11 10 10 9 7 7 6 6 6 5 4 3 4 5 5 6 6 6 6 5 5 6
7 9 9 15 8 9 9 10 11 10 11 11 11 10 8 7 6 7 7 6 6 5 4 6 6 6 6 8 7 7 6 6 7
8 9 12 14 13 11 12 11 11 12 9 8 9 10 8 8 8 7 5 5 6 5 6 7 6 8 8 8 9 8 7 6 7
14 12 15 13 14 15 13 12 3 8 12 15 6 4 6 7 6 6 6 6 6 6 7 9 9 7 8 8 7 15 15 11 7
19 18 12 13 13 10 7 11 12 18 12 10 12 6 6 5 3 5 6 7 6 6 7 9 8 6 7 8 7 16 15 15 6
18 15 11 7 6 7 10 15 14 15 11 10 11 10 13 10 6 6 7 6 6 6 6 8 6 5 5 6 7 14 13 12 6
17 18 5 8 6 7 12 13 12 9 10 12 12 9 6 6 7 7 6 6 6 5 9 7 4 4 6 6 5 11 10 7 4
8 7 9 12 11 10 15 10 10 12 12 11 9 7 8 6 6 7 7 6 6 4 9 8 5 5 5 6 3 7 9 6 2
8 7 11 14 13 10 11 12 11 11 10 8 8 9 8 7 6 7 7 6 4 6 7 6 5 6 3 3 2 5 8 6 2
9 13 10 12 10 8 7 7 10 10 10 7 7 9 10 7 7 6 7 9 5 6 7 6 5 5 3 2 3 5 5 3 5
3 10 9 9 11 11 6 7 6 11 7 10 9 8 7 6 8 7 7 8 6 5 5 5 5 4 3 2 2 3 5 7 9
5 7 9 8 10 9 7 7 7 7 8 8 9 8 7 6 8 7 6 5 5 5 5 4 4 4 3 3 4 4 3 2 4
6 8 5 6 7 7 7 7 7 6 7 9 8 7 6 6 6 7 6 4 4 5 4 5 5 4 4 4 4 4 4 2 2
11 10 8 7 6 9 7 8 7 6 6 8 8 6 5 4 4 4 4 4 2 2 4 8 9 6 7 4 8 7 7 7 8
12 10 9 9 9 7 8 7 7 6 6 7 7 7 6 4 4 4 4 3 4 4 4 4 7 8 10 10 11 9 10 10 9
Wind_Direction
199 192 197 206 221 186 177 176 162 153 169 160 161 161 180 160 154 151 152 150 155 152 161 176 177 102 61 38 24 32 24 20 5
201 205 201 198 211 171 170 162 159 159 161 164 159 166 163 166 147 152 155 158 165 175 176 175 150 119 80 39 35 49 37 27 14
212 161 117 197 230 166 161 148 146 157 164 163 163 158 153 159 160 157 158 160 170 154 144 119 134 98 68 42 21 42 40 29 5
179 190 179 160 188 174 151 147 159 161 162 155 160 154 148 149 169 166 167 144 130 149 126 137 142 284 34 33 7 49 46 26 13
157 91 127 145 150 161 161 159 169 164 169 165 165 157 156 163 166 142 139 136 153 148 137 113 58 34 35 28 357 54 40 13 2
129 125 166 197 138 175 177 178 175 173 178 171 164 157 157 146 143 140 144 145 143 130 119 70 44 44 33 21 26 41 32 29 3
147 152 166 205 175 185 198 187 182 181 185 169 161 151 140 134 140 144 142 141 138 130 115 89 76 54 51 45 26 17 18 30 24
170 173 178 180 173 182 193 186 186 193 173 159 153 141 130 141 134 127 125 129 111 102 89 77 69 68 51 44 43 28 30 34 38
190 203 195 186 190 181 187 183 128 54 59 66 38 66 107 108 115 134 131 104 95 100 89 75 72 55 65 61 50 30 33 37 32
198 206 200 185 179 184 148 108 116 104 135 129 134 158 99 80 99 122 103 101 104 99 88 97 87 72 70 53 38 34 31 39 34
204 213 204 141 145 112 114 121 133 153 162 132 126 145 148 148 165 124 120 116 111 99 97 102 97 86 63 62 41 34 40 47 35
217 219 106 121 132 126 122 132 146 139 127 137 154 143 143 127 132 134 124 109 107 103 110 110 111 103 84 63 29 41 44 45 33
222 163 132 143 142 146 127 131 134 137 141 150 143 149 138 126 136 124 113 121 117 92 118 125 116 98 89 79 41 29 41 39 17
55 60 114 123 137 152 121 135 140 144 145 145 139 134 122 125 108 118 124 105 102 114 114 116 109 108 100 84 45 2 16 26 13
70 90 85 100 110 125 123 110 129 139 140 131 125 123 121 120 128 124 113 110 99 107 116 115 121 122 109 22 353 321 314 26 59
116 100 97 109 128 127 93 102 126 132 125 131 124 116 122 125 115 118 124 125 127 117 127 134 141 126 139 225 271 278 340 16 27
180 109 114 115 115 122 123 99 100 116 132 126 120 121 131 133 134 132 132 129 138 133 140 142 151 165 195 244 271 270 276 10 19
142 120 112 100 114 116 96 99 107 126 135 132 132 136 141 137 140 146 139 122 154 161 192 172 175 209 196 205 255 255 214 193 295
155 127 109 106 126 124 126 116 126 137 144 135 133 126 134 144 144 144 135 138 144 12 237 239 241 235 201 239 245 267 247 244 246
124 125 131 151 143 133 126 126 127 155 154 137 132 137 150 137 134 138 146 158 174 193 285 256 248 259 258 256 252 258 254 257 264